Content
SEND FEEDBACK

Daily
Averages
Monthly
Summary
United States of America

NEVADA CITY, CALIFORNIA


Home > North America > United States > California
Elevation: 2934 feet     Latitude: 39 18N     Longitude: 121 00W

WEATHER
 
SELECT A DAY
Number of Records: 60,135;   Date Range: 9/21/11 - 7/31/14
 
SHARE

PRINT THIS DATA

[ ← Previous Day ]
WEATHER ALMANAC - FEBRUARY 1, 2013
[ Next Day → ]
[ °C ]   °F
Weather ElementAverageHighLow
Temperature54.6 °F62.6 °F (11:55 am)48.2 °F (6:35 pm)
Dewpoint31.5 °F37.4 °F (5:35 pm)24.8 °F (4:15 am)
Humidity42.3 %62 % (8:55 pm)27 % (12:15 pm)
Barometer30.22 in30.26 in (8:55 pm)30.18 in (2:35 pm)
Wind Speed2.9 mph8.1 mph (3:15 am)
Weather ElementAverage
Visibility10 mi
Wind DirectionENE (75.4 °)

Weather ElementTotal
Precipitation---
Heating Degree Days9.6 (Base 65)
Growing Degree Days5.4 (Base 50)
Averaged from 69 records on February 1, 2013
WEATHER CONDITIONS BREAKOUT
WIND DIRECTION BREAKOUT
WEATHER BY HOUR - FEBRUARY 1, 2013
[ °C ]   °F
Local TimeTemperatureDewpointHumidityBarometerVisibilityWind DirectionWind SpeedGust SpeedPrecipitationEventsConditions
12:35 AM50.0 °F32.0 °F50 %30.23 in10.0 miCalmClear
12:55 AM50.0 °F32.0 °F50 %30.22 in10.0 miESE (110°)4.6 mphClear
1:15 AM50.0 °F30.2 °F47 %30.22 in10.0 miEast (100°)5.8 mphClear
1:35 AM51.8 °F28.4 °F41 %30.23 in10.0 miEast (100°)4.6 mphClear
2:15 AM50.0 °F28.4 °F43 %30.23 in10.0 miEast (100°)6.9 mphClear
2:35 AM51.8 °F26.6 °F38 %30.22 in10.0 miEast (100°)5.8 mphClear
2:55 AM51.8 °F26.6 °F38 %30.22 in10.0 miEast (100°)6.9 mphClear
3:15 AM51.8 °F26.6 °F38 %30.21 in10.0 miEast (100°)8.1 mphClear
3:35 AM53.6 °F26.6 °F35 %30.21 in10.0 miEast (100°)6.9 mphClear
3:55 AM51.8 °F26.6 °F38 %30.21 in10.0 miEast (100°)6.9 mphClear
4:15 AM51.8 °F24.8 °F35 %30.21 in10.0 miEast (100°)8.1 mphClear
4:35 AM51.8 °F24.8 °F35 %30.21 in10.0 miEast (100°)6.9 mphClear
4:55 AM51.8 °F24.8 °F35 %30.21 in10.0 miEast (100°)6.9 mphClear
5:15 AM53.6 °F24.8 °F33 %30.21 in10.0 miESE (110°)6.9 mphClear
5:35 AM51.8 °F26.6 °F38 %30.21 in10.0 miESE (110°)5.8 mphClear
5:55 AM51.8 °F26.6 °F38 %30.21 in10.0 miESE (110°)5.8 mphClear
6:15 AM51.8 °F26.6 °F38 %30.22 in10.0 miESE (120°)4.6 mphClear
6:35 AM50.0 °F26.6 °F40 %30.22 in10.0 miESE (120°)4.6 mphClear
6:55 AM50.0 °F26.6 °F40 %30.23 in10.0 miESE (110°)4.6 mphClear
7:15 AM50.0 °F26.6 °F40 %30.23 in10.0 miCalmClear
7:35 AM50.0 °F26.6 °F40 %30.23 in10.0 miCalmClear
8:15 AM51.8 °F26.6 °F38 %30.24 in10.0 miESE (110°)4.6 mphClear
8:35 AM53.6 °F26.6 °F35 %30.24 in10.0 miCalmClear
8:55 AM55.4 °F28.4 °F36 %30.25 in10.0 miCalmClear
9:15 AM55.4 °F32.0 °F41 %30.25 in10.0 miCalmClear
9:35 AM57.2 °F32.0 °F38 %30.25 in10.0 miCalmClear
9:55 AM57.2 °F32.0 °F38 %30.25 in10.0 miCalmClear
10:15 AM57.2 °F32.0 °F38 %30.24 in10.0 miCalmClear
10:35 AM59.0 °F32.0 °F36 %30.24 in10.0 miCalmClear
10:55 AM59.0 °F32.0 °F36 %30.24 in10.0 miCalmClear
11:15 AM59.0 °F32.0 °F36 %30.24 in10.0 miCalmClear
11:35 AM60.8 °F32.0 °F34 %30.24 in10.0 miCalmClear
11:55 AM62.6 °F32.0 °F32 %30.23 in10.0 miCalmClear
12:15 PM62.6 °F28.4 °F27 %30.22 in10.0 miCalmClear
12:35 PM62.6 °F32.0 °F32 %30.22 in10.0 miSW (220°)5.8 mphClear
12:55 PM60.8 °F32.0 °F34 %30.21 in10.0 miWest (280°)6.9 mphClear
1:15 PM62.6 °F33.8 °F34 %30.21 in10.0 miWest (280°)4.6 mphClear
1:35 PM62.6 °F32.0 °F32 %30.20 in10.0 miCalmClear
1:55 PM62.6 °F32.0 °F32 %30.19 in10.0 miNW (320°)5.8 mphClear
2:15 PM62.6 °F32.0 °F32 %30.19 in10.0 miCalmClear
2:35 PM62.6 °F32.0 °F32 %30.18 in10.0 miCalmClear
2:55 PM62.6 °F35.6 °F37 %30.18 in10.0 miCalmClear
3:15 PM62.6 °F35.6 °F37 %30.18 in10.0 miCalmClear
3:35 PM62.6 °F35.6 °F37 %30.18 in10.0 miWSW (240°)4.6 mphClear
3:55 PM60.8 °F35.6 °F39 %30.18 in10.0 miWest (280°)5.8 mphClear
4:15 PM60.8 °F35.6 °F39 %30.19 in10.0 miWNW (300°)6.9 mphClear
4:35 PM59.0 °F35.6 °F42 %30.18 in10.0 miCalmClear
4:55 PM57.2 °F35.6 °F44 %30.19 in10.0 miWNW (300°)4.6 mphClear
5:15 PM57.2 °F35.6 °F44 %30.19 in10.0 miWNW (300°)4.6 mphClear
5:35 PM53.6 °F37.4 °F54 %30.19 in10.0 miCalmClear
5:55 PM51.8 °F37.4 °F58 %30.20 in10.0 miCalmClear
6:15 PM51.8 °F32.0 °F47 %30.20 in10.0 miNNE (20°)4.6 mphClear
6:35 PM48.2 °F33.8 °F58 %30.20 in10.0 miCalmClear
6:55 PM51.8 °F32.0 °F47 %30.21 in10.0 miCalmClear
7:15 PM51.8 °F32.0 °F47 %30.22 in10.0 miCalmClear
7:35 PM50.0 °F32.0 °F50 %30.23 in10.0 miCalmClear
7:55 PM51.8 °F35.6 °F54 %30.23 in10.0 miCalmClear
8:15 PM51.8 °F35.6 °F54 %30.24 in10.0 miCalmClear
8:35 PM50.0 °F35.6 °F58 %30.25 in10.0 miCalmClear
8:55 PM50.0 °F37.4 °F62 %30.26 in10.0 miCalmClear
9:15 PM50.0 °F37.4 °F62 %30.26 in10.0 miEast (90°)5.8 mphClear
9:35 PM51.8 °F37.4 °F58 %30.26 in10.0 miCalmClear
9:55 PM50.0 °F37.4 °F62 %30.26 in10.0 miEast (90°)5.8 mphClear
10:15 PM50.0 °F35.6 °F58 %30.26 in10.0 miEast (90°)4.6 mphClear
10:35 PM50.0 °F33.8 °F54 %30.26 in10.0 miEast (90°)3.5 mphClear
10:55 PM50.0 °F32.0 °F50 %30.26 in10.0 miCalmClear
11:15 PM50.0 °F32.0 °F50 %30.26 in10.0 miESE (110°)3.5 mphClear
11:35 PM53.6 °F33.8 °F47 %30.25 in10.0 miEast (100°)5.8 mphClear
11:55 PM53.6 °F33.8 °F47 %30.25 in10.0 miEast (90°)3.5 mphClear
Hourly data recorded from KGOO, located miles away from Nevada City, California







STORIES FROM OUR PARTNERS